• Em Portugal
  • Lista de países
  • Para 7 dias
  • Temperatura da água
  • Mapas de satélite
  • Mapa do tempo
  • Widgets de tempo
  • user-avatar
    Iniciar Sessão

    Previsão horária em Pogodino

    Hoje, 22 Setembro, Sábado

    Tempo Temperatura Precipitação Vento Pressão Humidade
    00:00 +17°C° 0 mm 4 m/s 743 mmHg 76%
    01:00 +15°C° 0 mm 4 m/s 742 mmHg 75%
    02:00 +15°C° 0 mm 4 m/s 742 mmHg 75%
    03:00 +15°C° 0 mm 5 m/s 742 mmHg 76%
    04:00 +15°C° 0 mm 5 m/s 741 mmHg 76%
    05:00 +15°C° 0 mm 5 m/s 741 mmHg 76%
    06:00 +16°C° 0 mm 6 m/s 741 mmHg 74%
    07:00 +16°C° 0 mm 6 m/s 740 mmHg 72%
    08:00 +17°C° 0 mm 6 m/s 740 mmHg 69%
    09:00 +20°C° 0 mm 7 m/s 740 mmHg 63%
    10:00 +21°C° 0 mm 7 m/s 739 mmHg 58%
    11:00 +23°C° 0 mm 8 m/s 739 mmHg 52%
    12:00 +23°C° 0 mm 7 m/s 739 mmHg 54%
    13:00 +22°C° 0 mm 7 m/s 739 mmHg 56%
    14:00 +22°C° 0 mm 6 m/s 739 mmHg 58%
    15:00 +19°C° 0.2 mm 6 m/s 739 mmHg 66%
    16:00 +16°C° 0.2 mm 6 m/s 740 mmHg 74%
    17:00 +13°C° 0.2 mm 6 m/s 740 mmHg 82%
    18:00 +12°C° 0.4 mm 5 m/s 740 mmHg 84%
    19:00 +12°C° 0.4 mm 4 m/s 740 mmHg 85%
    20:00 +11°C° 0.4 mm 3 m/s 741 mmHg 87%
    21:00 +11°C° 0.6 mm 3 m/s 741 mmHg 88%
    22:00 +11°C° 0.6 mm 3 m/s 741 mmHg 90%
    23:00 +10°C° 0.6 mm 3 m/s 741 mmHg 91%

    Amanhã, 23 Setembro, Domingo

    Tempo Temperatura Precipitação Vento Pressão Humidade
    00:00 +10°C° 0.2 mm 3 m/s 741 mmHg 91%
    01:00 +10°C° 0.2 mm 3 m/s 741 mmHg 91%
    02:00 +10°C° 0.2 mm 3 m/s 741 mmHg 91%
    03:00 +9°C° 0 mm 3 m/s 741 mmHg 92%
    04:00 +9°C° 0 mm 3 m/s 740 mmHg 94%
    05:00 +8°C° 0 mm 3 m/s 740 mmHg 95%
    06:00 +9°C° 0 mm 3 m/s 740 mmHg 92%
    07:00 +9°C° 0 mm 3 m/s 740 mmHg 89%
    08:00 +10°C° 0 mm 4 m/s 740 mmHg 86%
    09:00 +11°C° 0 mm 4 m/s 740 mmHg 79%
    10:00 +12°C° 0 mm 5 m/s 740 mmHg 72%
    11:00 +14°C° 0 mm 5 m/s 739 mmHg 65%
    12:00 +14°C° 0.3 mm 5 m/s 739 mmHg 63%
    13:00 +14°C° 0.3 mm 6 m/s 739 mmHg 62%
    14:00 +15°C° 0.3 mm 6 m/s 739 mmHg 60%
    15:00 +14°C° 0.4 mm 5 m/s 739 mmHg 64%
    16:00 +13°C° 0.4 mm 4 m/s 739 mmHg 68%
    17:00 +12°C° 0.4 mm 4 m/s 739 mmHg 72%
    18:00 +11°C° 0 mm 4 m/s 739 mmHg 76%
    19:00 +10°C° 0 mm 3 m/s 739 mmHg 80%
    20:00 +9°C° 0 mm 3 m/s 739 mmHg 83%
    21:00 +8°C° 0 mm 3 m/s 739 mmHg 85%
    22:00 +8°C° 0 mm 3 m/s 739 mmHg 87%
    23:00 +8°C° 0 mm 3 m/s 739 mmHg 89%

    Depois de amanhã, 24 Setembro, Segunda-feira

    Tempo Temperatura Precipitação Vento Pressão Humidade
    00:00 +7°C° 0 mm 3 m/s 739 mmHg 91%
    01:00 +7°C° 0 mm 3 m/s 738 mmHg 92%
    02:00 +7°C° 0 mm 3 m/s 738 mmHg 94%
    03:00 +7°C° 0 mm 3 m/s 738 mmHg 94%
    04:00 +7°C° 0 mm 3 m/s 737 mmHg 94%
    05:00 +7°C° 0 mm 3 m/s 737 mmHg 95%
    06:00 +8°C° 0.4 mm 3 m/s 736 mmHg 94%
    07:00 +7°C° 0.4 mm 4 m/s 735 mmHg 93%
    08:00 +8°C° 0.4 mm 4 m/s 735 mmHg 92%
    09:00 +8°C° 2.7 mm 5 m/s 733 mmHg 92%
    10:00 +8°C° 2.7 mm 6 m/s 732 mmHg 92%
    11:00 +6°C° 2.7 mm 7 m/s 731 mmHg 93%
    12:00 +8°C° 3.3 mm 7 m/s 729 mmHg 93%
    13:00 +8°C° 3.3 mm 6 m/s 728 mmHg 94%
    14:00 +8°C° 3.3 mm 6 m/s 726 mmHg 95%
    15:00 +8°C° 3.7 mm 6 m/s 725 mmHg 94%
    16:00 +8°C° 3.7 mm 6 m/s 724 mmHg 94%
    17:00 +8°C° 3.7 mm 6 m/s 723 mmHg 94%
    18:00 +8°C° 1.9 mm 7 m/s 723 mmHg 93%
    19:00 +6°C° 1.9 mm 9 m/s 723 mmHg 92%
    20:00 +6°C° 1.9 mm 10 m/s 723 mmHg 91%
    21:00 +4°C° 1.8 mm 11 m/s 724 mmHg 90%
    22:00 +4°C° 1.8 mm 11 m/s 725 mmHg 89%
    23:00 +4°C° 1.8 mm 12 m/s 726 mmHg 87%

    25 Setembro, Terça-feira

    Tempo Temperatura Precipitação Vento Pressão Humidade
    00:00 +4°C° 1 mm 12 m/s 727 mmHg 87%
    01:00 +4°C° 1 mm 12 m/s 728 mmHg 86%
    02:00 +4°C° 1 mm 12 m/s 729 mmHg 85%
    03:00 +4°C° 0.2 mm 11 m/s 730 mmHg 85%
    04:00 +3°C° 0.2 mm 11 m/s 731 mmHg 84%
    05:00 +3°C° 0.2 mm 10 m/s 733 mmHg 83%
    06:00 +3°C° 0 mm 10 m/s 734 mmHg 82%
    07:00 +3°C° 0 mm 10 m/s 734 mmHg 81%
    08:00 +3°C° 0 mm 10 m/s 735 mmHg 81%
    09:00 +3°C° 0 mm 10 m/s 736 mmHg 78%
    10:00 +3°C° 0 mm 10 m/s 737 mmHg 75%
    11:00 +5°C° 0 mm 9 m/s 738 mmHg 72%
    12:00 +5°C° 0 mm 9 m/s 738 mmHg 69%
    13:00 +6°C° 0 mm 9 m/s 739 mmHg 65%
    14:00 +6°C° 0 mm 9 m/s 739 mmHg 62%
    15:00 +6°C° 0 mm 8 m/s 739 mmHg 63%
    16:00 +5°C° 0 mm 7 m/s 740 mmHg 64%
    17:00 +5°C° 0 mm 6 m/s 740 mmHg 65%
    18:00 +5°C° 0 mm 5 m/s 741 mmHg 64%
    19:00 +5°C° 0 mm 5 m/s 741 mmHg 64%
    20:00 +3°C° 0 mm 5 m/s 742 mmHg 63%
    21:00 +2°C° 0 mm 5 m/s 742 mmHg 68%
    22:00 +2°C° 0 mm 5 m/s 742 mmHg 72%
    23:00 +3°C° 0 mm 4 m/s 742 mmHg 76%

    26 Setembro, Quarta-feira

    Tempo Temperatura Precipitação Vento Pressão Humidade
    00:00 +3°C° 0 mm 4 m/s 742 mmHg 79%
    01:00 +1°C° 0 mm 4 m/s 741 mmHg 82%
    02:00 +2°C° 0 mm 3 m/s 741 mmHg 84%
    03:00 +2°C° 0 mm 3 m/s 741 mmHg 86%
    04:00 +2°C° 0 mm 3 m/s 740 mmHg 88%
    05:00 +2°C° 0 mm 3 m/s 740 mmHg 90%
    06:00 +2°C° 1.2 mm 3 m/s 740 mmHg 90%
    07:00 +3°C° 1.2 mm 3 m/s 740 mmHg 91%
    08:00 +3°C° 1.2 mm 3 m/s 740 mmHg 92%
    09:00 +4°C° 1.1 mm 3 m/s 740 mmHg 92%
    10:00 +4°C° 1.1 mm 4 m/s 741 mmHg 92%
    11:00 +4°C° 1.1 mm 4 m/s 742 mmHg 92%
    12:00 +5°C° 0.3 mm 4 m/s 742 mmHg 88%
    13:00 +5°C° 0.3 mm 4 m/s 743 mmHg 84%
    14:00 +6°C° 0.3 mm 4 m/s 744 mmHg 80%
    15:00 +6°C° 0 mm 4 m/s 745 mmHg 80%
    16:00 +7°C° 0 mm 3 m/s 745 mmHg 79%
    17:00 +7°C° 0 mm 2 m/s 746 mmHg 79%
    18:00 +6°C° 0 mm 2 m/s 746 mmHg 81%
    19:00 +5°C° 0 mm 2 m/s 747 mmHg 82%
    20:00 +4°C° 0 mm 1 m/s 747 mmHg 84%
    21:00 +4°C° 0 mm 1 m/s 748 mmHg 85%
    22:00 +3°C° 0 mm 2 m/s 748 mmHg 86%
    23:00 +3°C° 0 mm 2 m/s 748 mmHg 86%

    27 Setembro, Quinta-feira

    Tempo Temperatura Precipitação Vento Pressão Humidade
    00:00 +3°C° 0 mm 2 m/s 748 mmHg 88%
    01:00 +3°C° 0 mm 2 m/s 748 mmHg 89%
    02:00 +2°C° 0 mm 3 m/s 748 mmHg 90%
    03:00 +2°C° 0 mm 3 m/s 748 mmHg 90%
    04:00 +3°C° 0 mm 4 m/s 748 mmHg 89%
    05:00 +3°C° 0 mm 4 m/s 747 mmHg 89%
    06:00 +3°C° 0 mm 5 m/s 747 mmHg 87%
    07:00 +3°C° 0 mm 6 m/s 746 mmHg 85%
    08:00 +4°C° 0 mm 7 m/s 746 mmHg 83%
    09:00 +5°C° 0.2 mm 7 m/s 746 mmHg 82%
    10:00 +6°C° 0.2 mm 8 m/s 745 mmHg 82%
    11:00 +7°C° 0.2 mm 8 m/s 745 mmHg 81%
    12:00 +7°C° 0.7 mm 8 m/s 744 mmHg 83%
    13:00 +7°C° 0.7 mm 8 m/s 744 mmHg 85%
    14:00 +7°C° 0.7 mm 8 m/s 743 mmHg 87%
    15:00 +7°C° 0.3 mm 8 m/s 743 mmHg 87%
    16:00 +7°C° 0.3 mm 8 m/s 742 mmHg 88%
    17:00 +7°C° 0.3 mm 8 m/s 742 mmHg 89%
    18:00 +7°C° 0.5 mm 8 m/s 742 mmHg 89%
    19:00 +8°C° 0.5 mm 7 m/s 741 mmHg 89%
    20:00 +8°C° 0.5 mm 7 m/s 741 mmHg 90%
    21:00 +8°C° 0 mm 7 m/s 740 mmHg 89%
    22:00 +8°C° 0 mm 7 m/s 740 mmHg 88%
    23:00 +8°C° 0 mm 7 m/s 739 mmHg 88%
    Mostrar mais